Del Rio Laughlin AFB, TX

2:39 PM CDT on July 23, 2017 (GMT -0500)
Laughlin Air Force Base

Weather History for KDLF - May, 2013

Change the Weather History Date:

Thursday, May 23, 2013

  Actual Average Record
Temperature  
Mean Temperature 84 °F -  
Max Temperature 92 °F 93 °F 107 °F (2000)
Min Temperature 77 °F 71 °F 61 °F (2017)
Cooling Degree Days 20    
Growing Degree Days 34 (Base 50)    
Moisture  
Dew Point 70 °F    
Average Humidity 66    
Maximum Humidity 83    
Minimum Humidity 42    
Precipitation  
Precipitation 0.00 in - - ()
Sea Level Pressure  
Sea Level Pressure 29.87 in    
Wind  
Wind Speed 14 mph (SE)    
Max Wind Speed 21 mph    
Max Gust Speed 28 mph    
Visibility 10 miles    
Events      
Averages and records for this station are not official NWS values.
T = Trace of Precipitation, MM = Missing Value Source: NWS Daily Summary

Daily Weather History Graph

Daily Weather History Graph

Search for Another Location

Airport or City:

Trip Planner

Search our weather history database for the weather conditions in past years. The results will help you decide how hot, cold, wet, or windy it might be!

Date:

Astronomy

May. 23, 2013 Rise Set
Actual Time 6:46 AM CDT 8:33 PM CDT
Civil Twilight 6:20 AM CDT 8:59 PM CDT
Nautical Twilight 5:48 AM CDT 9:31 PM CDT
Astronomical Twilight 5:14 AM CDT 10:05 PM CDT
Moon 7:13 PM CDT 5:25 AM CDT
Length of Visible Light 14h 39m
Length of Day
13h 46m
Waxing Gibbous, 97% of the Moon is Illuminated
May 23
Waxing Gibbous
May 24
Full
May 31
Last Quarter
Jun 8
New
Jun 16
First Quarter

Hourly Weather History & Observations

Time (CDT) Temp. Heat Index Dew Point Humidity Pressure Visibility Wind Dir Wind Speed Gust Speed Precip Events Conditions
12:58 AM 82.4 °F 86.1 °F 69.4 °F 65% 29.82 in 10.0 mi SSE 12.7 mph - N/A   Clear
1:58 AM 81.0 °F 84.2 °F 69.4 °F 68% 29.82 in 10.0 mi SSE 11.5 mph - N/A   Clear
2:58 AM 80.8 °F 84.4 °F 70.7 °F 71% 29.81 in 10.0 mi SE 15.0 mph - N/A   Overcast
3:08 AM 80.6 °F 84.6 °F 71.6 °F 74% 29.85 in 10.0 mi SE 15.0 mph - N/A   Overcast
3:43 AM 80.6 °F 84.6 °F 71.6 °F 74% 29.85 in 10.0 mi SE 18.4 mph - N/A   Overcast
3:58 AM 79.7 °F - 71.4 °F 76% 29.81 in 10.0 mi SE 12.7 mph - N/A   Mostly Cloudy
4:33 AM 78.8 °F - 71.6 °F 78% 29.85 in 10.0 mi SE 13.8 mph - N/A   Mostly Cloudy
4:58 AM 79.3 °F - 72.0 °F 78% 29.81 in 10.0 mi SE 13.8 mph - N/A   Overcast
5:13 AM 78.8 °F - 71.6 °F 78% 29.86 in 8.0 mi SE 12.7 mph - N/A   Mostly Cloudy
5:58 AM 78.6 °F - 72.1 °F 80% 29.83 in 10.0 mi SE 13.8 mph - N/A   Overcast
6:23 AM 78.8 °F - 71.6 °F 78% 29.87 in 10.0 mi SE 15.0 mph - N/A   Mostly Cloudy
6:58 AM 77.9 °F - 72.1 °F 82% 29.85 in 10.0 mi SE 15.0 mph - N/A   Overcast
7:53 AM 78.8 °F - 71.6 °F 78% 29.91 in 10.0 mi SE 15.0 mph - N/A   Overcast
7:58 AM 77.9 °F - 71.8 °F 81% 29.87 in 10.0 mi SE 16.1 mph - N/A   Overcast
8:58 AM 77.4 °F - 72.0 °F 83% 29.90 in 10.0 mi SE 13.8 mph - N/A   Overcast
9:23 AM 77.0 °F - 71.6 °F 83% 29.95 in 9.0 mi SSE 17.3 mph - N/A   Overcast
9:58 AM 77.2 °F - 71.6 °F 83% 29.92 in 9.0 mi SE 13.8 mph - N/A   Overcast
10:02 AM 77.0 °F - 71.6 °F 83% 29.92 in 9.0 mi SE 12.7 mph - N/A   Overcast
10:03 AM 77.0 °F - 71.6 °F 83% 29.96 in 9.0 mi SE 12.7 mph - N/A   Overcast
10:58 AM 77.5 °F - 71.2 °F 81% 29.92 in 10.0 mi SE 15.0 mph - N/A   Overcast
11:38 AM 78.8 °F - 69.8 °F 74% 29.96 in 10.0 mi SSE 16.1 mph - N/A   Overcast
11:58 AM 79.7 °F - 70.2 °F 73% 29.92 in 10.0 mi SE 17.3 mph - N/A   Overcast
12:58 PM 84.7 °F 88.8 °F 69.4 °F 60% 29.90 in 10.0 mi SSE 17.3 mph - N/A   Overcast
1:03 PM 84.2 °F 88.4 °F 69.8 °F 62% 29.94 in 10.0 mi SE 16.1 mph - N/A   Overcast
1:58 PM 88.2 °F 92.1 °F 68.5 °F 52% 29.88 in 10.0 mi SE 16.1 mph 23.0 mph N/A   Mostly Cloudy
2:34 PM 91.4 °F 95.4 °F 68.0 °F 46% 29.90 in 10.0 mi SE 16.1 mph 23.0 mph N/A   Mostly Cloudy
2:58 PM 91.0 °F 95.2 °F 68.2 °F 47% 29.85 in 10.0 mi SSE 19.6 mph 23.0 mph N/A   Mostly Cloudy
3:58 PM 92.5 °F 96.9 °F 68.2 °F 45% 29.81 in 10.0 mi SE 17.3 mph 23.0 mph N/A   Scattered Clouds
4:58 PM 92.7 °F 95.8 °F 66.7 °F 42% 29.79 in 10.0 mi SE 20.7 mph 27.6 mph N/A   Scattered Clouds
5:58 PM 92.5 °F 95.4 °F 66.0 °F 42% 29.77 in 10.0 mi SSE 19.6 mph - N/A   Partly Cloudy
6:58 PM 92.3 °F 95.1 °F 65.8 °F 42% 29.76 in 10.0 mi SSE 18.4 mph 26.5 mph N/A   Partly Cloudy
7:58 PM 91.0 °F 93.8 °F 66.0 °F 44% 29.78 in 10.0 mi SSE 19.6 mph - N/A   Partly Cloudy
8:58 PM 90.0 °F 92.4 °F 65.8 °F 45% 29.84 in 10.0 mi South 9.2 mph - N/A   Mostly Cloudy
9:58 PM 88.0 °F 90.7 °F 66.4 °F 49% 29.88 in 10.0 mi SSW 6.9 mph - N/A   Clear
10:58 PM 85.6 °F 88.2 °F 66.6 °F 53% 29.89 in 10.0 mi SSE 2.3 mph - N/A   Partly Cloudy
11:58 PM 84.6 °F 87.4 °F 67.1 °F 56% 29.92 in 10.0 mi East 3.5 mph - N/A   Mostly Cloudy